Las Vegas, NV

2:42 AM PST on January 18, 2018 (GMT -0800)
McCarran International

Weather History for KLAS - August, 2013

Change the Weather History Date:

Tuesday, August 6, 2013

  Actual Average Record
Temperature  
Mean Temperature 93 °F 92 °F  
Max Temperature 104 °F 103 °F 114 °F (1978)
Min Temperature 81 °F 81 °F 64 °F (1950)
Degree Days  
Heating Degree Days 0 0  
Month to date heating degree days 0 0  
Since 1 June heating degree days 0 1  
Since 1 July heating degree days 0 0  
Cooling Degree Days 28 27  
Month to date cooling degree days 169 163  
Year to date cooling degree days 2578 2217  
Since 1 June cooling degree days 1888 1667  
Growing Degree Days 42 (Base 50)    
Moisture  
Dew Point 21 °F    
Average Humidity 10    
Maximum Humidity 15    
Minimum Humidity 4    
Precipitation  
Precipitation 0.00 in 0.01 in 0.46 in (1978)
Month to date precipitation 0.00 0.08  
Year to date precipitation 0.91 2.56  
Snow  
Snow 0.00 in 0.00 in 0.00 in ()
Month to date snowfall 0.0 0.0  
Since 1 June snowfall 0.0 0.0  
Since 1 July snowfall 0.0 0.0  
Snow Depth 0.00 in    
Sea Level Pressure  
Sea Level Pressure 29.76 in    
Wind  
Wind Speed 12 mph (SSW)    
Max Wind Speed 21 mph    
Max Gust Speed 26 mph    
Visibility 10 miles    
Events      
T = Trace of Precipitation, MM = Missing Value Source: NWS Daily Summary

Daily Weather History Graph

Daily Weather History Graph

Search for Another Location

Airport or City:

Trip Planner

Search our weather history database for the weather conditions in past years. The results will help you decide how hot, cold, wet, or windy it might be!

Date:

Astronomy

Aug. 06, 2013 Rise Set
Actual Time 5:51 AM PDT 7:40 PM PDT
Civil Twilight 5:24 AM PDT 8:08 PM PDT
Nautical Twilight 4:50 AM PDT 8:41 PM PDT
Astronomical Twilight 4:14 AM PDT 9:17 PM PDT
Moon 5:45 AM PDT (8/6) 7:20 PM PDT (8/6)
Length of Visible Light 14h 44m
Length of Day
13h 48m
Waning Crescent, 0% of the Moon is Illuminated
Aug 6
Waning Crescent
Aug 6
New
Aug 14
First Quarter
Aug 20
Full
Aug 28
Last Quarter

Hourly Weather History & Observations

Time (PDT) Temp. Dew Point Humidity Pressure Visibility Wind Dir Wind Speed Gust Speed Precip Events Conditions
12:56 AM 91.0 °F 28.0 °F 10% 29.73 in 10.0 mi SSW 15.0 mph - N/A   Scattered Clouds
1:56 AM 87.1 °F 28.9 °F 12% 29.73 in 10.0 mi South 12.7 mph - N/A   Scattered Clouds
2:56 AM 86.0 °F 33.1 °F 15% 29.73 in 10.0 mi South 15.0 mph - N/A   Scattered Clouds
3:56 AM 86.0 °F 30.0 °F 13% 29.73 in 10.0 mi SSW 8.1 mph - N/A   Mostly Cloudy
4:56 AM 84.0 °F 25.0 °F 12% 29.75 in 10.0 mi SSW 8.1 mph - N/A   Mostly Cloudy
5:56 AM 82.0 °F 25.0 °F 12% 29.77 in 10.0 mi South 8.1 mph - N/A   Mostly Cloudy
6:56 AM 82.0 °F 25.0 °F 12% 29.80 in 10.0 mi SSW 8.1 mph - N/A   Scattered Clouds
7:56 AM 86.0 °F 24.1 °F 10% 29.81 in 10.0 mi South 8.1 mph - N/A   Scattered Clouds
8:56 AM 89.1 °F 25.0 °F 10% 29.82 in 10.0 mi SSW 8.1 mph - N/A   Scattered Clouds
9:56 AM 93.0 °F 21.9 °F 8% 29.83 in 10.0 mi South 12.7 mph - N/A   Scattered Clouds
10:56 AM 95.0 °F 19.9 °F 7% 29.82 in 10.0 mi South 15.0 mph 21.9 mph N/A   Scattered Clouds
11:56 AM 98.1 °F 19.0 °F 6% 29.81 in 10.0 mi South 15.0 mph 23.0 mph N/A   Scattered Clouds
12:56 PM 100.0 °F 16.0 °F 5% 29.79 in 10.0 mi South 15.0 mph 24.2 mph N/A   Scattered Clouds
1:56 PM 102.0 °F 14.0 °F 4% 29.77 in 10.0 mi South 16.1 mph 23.0 mph N/A   Scattered Clouds
2:56 PM 102.0 °F 16.0 °F 4% 29.75 in 10.0 mi SSE 12.7 mph - N/A   Scattered Clouds
3:56 PM 102.0 °F 18.0 °F 5% 29.74 in 10.0 mi SSE 9.2 mph 21.9 mph N/A   Scattered Clouds
4:56 PM 102.0 °F 18.0 °F 5% 29.73 in 10.0 mi South 12.7 mph 16.1 mph N/A   Scattered Clouds
5:56 PM 100.9 °F 23.0 °F 6% 29.71 in 10.0 mi SSW 11.5 mph 20.7 mph N/A   Partly Cloudy
6:56 PM 99.0 °F 19.9 °F 6% 29.72 in 10.0 mi SW 15.0 mph - N/A   Partly Cloudy
7:56 PM 97.0 °F 12.9 °F 5% 29.72 in 10.0 mi SSW 11.5 mph - N/A   Partly Cloudy
8:56 PM 95.0 °F 9.0 °F 4% 29.73 in 10.0 mi SSW 12.7 mph - N/A   Partly Cloudy
9:56 PM 91.9 °F 14.0 °F 6% 29.74 in 10.0 mi South 9.2 mph - N/A   Partly Cloudy
10:56 PM 89.1 °F 18.0 °F 7% 29.75 in 10.0 mi South 9.2 mph - N/A   Partly Cloudy
11:56 PM 88.0 °F 32.0 °F 14% 29.76 in 10.0 mi South 11.5 mph - N/A   Partly Cloudy